Theta_e
313 312 313 313 313 315 318 321 322 320 323 324 321 320 318 318 318 318 320 318 317 317 316 316 317 316 317 317 318 318 318 320 320 320 321 321 320 319 320 318 318 319 316 320 325 328 329 330 330 330 331 333 336 335 335 335 335 337 336 336 335 333 332 333 333 332 330 331 330 328 325 322 321 319 319 319 319 319 320 320 320 325 327 328 330 332 333 334 333 332 331 328 323 319 321 324 325
312 312 313 313 315 321 321 320 326 328 326 321 318 320 317 317 318 320 322 319 318 317 317 317 317 317 317 318 317 318 318 318 319 319 319 319 319 319 319 319 318 318 318 318 322 327 329 330 330 330 330 331 332 333 333 334 335 336 336 336 335 334 334 334 333 331 330 330 329 327 324 321 320 319 319 319 320 320 320 320 320 323 327 328 330 331 333 335 334 333 332 328 322 317 316 319 322
312 313 313 315 319 321 323 321 324 329 326 319 318 322 318 316 322 322 319 317 317 316 317 318 317 318 317 318 318 318 319 318 318 319 319 318 319 317 317 318 318 318 318 318 321 324 327 329 330 331 330 330 331 332 333 334 335 335 335 335 334 334 335 335 333 330 330 330 327 326 323 321 320 319 320 319 320 320 320 320 321 322 325 327 329 330 332 334 333 332 332 328 322 318 316 316 317
314 315 315 318 320 319 330 330 328 331 323 319 319 321 322 320 323 318 315 316 316 317 317 317 318 318 318 319 318 317 318 318 319 319 319 317 317 316 316 317 317 318 318 318 319 322 325 327 329 331 331 331 331 332 333 335 335 334 334 333 333 333 334 334 332 330 331 330 326 324 322 321 320 320 320 319 320 320 321 321 322 322 324 326 327 330 332 332 332 331 331 328 323 320 320 319 316
315 317 317 319 321 319 329 328 327 329 320 322 319 317 325 324 321 314 314 318 317 318 318 317 318 317 317 318 318 318 318 318 318 318 319 317 316 316 315 315 316 317 318 319 318 320 323 325 327 329 330 331 331 332 333 334 334 334 333 331 332 331 331 331 329 330 331 329 325 323 322 321 320 320 320 321 323 324 322 322 322 323 324 327 327 329 331 331 331 330 329 328 327 325 323 318 313
317 319 319 319 320 316 323 323 322 324 319 323 319 316 320 317 316 313 314 318 317 318 318 318 318 317 316 317 318 318 318 318 318 318 318 317 316 316 315 315 315 316 317 319 319 319 321 323 325 326 328 329 331 331 332 334 334 333 332 331 331 330 330 329 328 328 329 327 324 322 321 321 320 323 325 327 328 326 324 321 322 323 323 325 328 330 331 330 328 326 326 327 327 324 317 311 309
318 319 319 320 320 317 327 327 322 323 317 316 316 318 316 312 312 312 315 318 317 317 317 318 317 317 316 316 317 317 318 318 318 318 318 317 316 315 315 314 315 315 316 318 319 319 319 321 322 324 326 326 328 329 330 333 333 332 331 331 330 330 329 329 329 327 328 326 324 322 321 321 320 326 329 329 329 328 325 321 321 323 322 324 328 330 330 328 324 320 320 321 320 317 313 308 308
319 319 318 324 326 324 332 327 322 323 316 310 312 316 314 312 312 312 315 316 317 316 316 317 316 317 316 315 316 317 317 317 318 318 318 317 316 315 315 315 315 315 315 317 318 319 319 319 321 323 324 325 326 326 327 329 331 330 329 330 328 328 327 328 327 325 327 326 326 326 324 322 322 327 329 328 329 328 326 322 320 323 323 324 326 327 327 326 323 317 314 314 313 312 312 309 306
319 319 318 325 330 328 330 323 319 319 318 315 313 313 313 313 313 313 315 315 316 314 315 316 316 316 315 315 316 317 317 317 317 318 318 316 316 316 315 316 315 315 315 315 317 319 319 319 320 321 323 325 325 325 325 325 327 327 326 327 326 325 325 325 324 323 324 324 326 328 328 324 323 327 327 327 329 328 327 324 321 321 321 321 322 322 321 319 319 315 311 310 310 311 311 308 305
318 319 317 324 330 326 324 320 319 319 319 317 312 313 314 313 314 314 314 314 314 314 315 316 316 316 315 316 316 317 316 316 316 317 317 316 316 316 315 316 316 316 315 315 315 318 319 319 320 321 322 323 325 325 324 324 326 325 325 326 325 324 324 323 323 323 322 323 323 325 328 324 322 326 326 327 329 329 329 326 323 321 319 318 318 319 318 316 313 311 310 310 310 310 310 307 304
318 318 317 327 331 323 321 321 323 324 321 316 312 313 314 314 314 313 313 314 313 314 315 316 316 316 315 315 316 316 315 315 315 315 316 316 316 316 316 315 316 316 316 315 314 316 318 319 320 321 322 323 325 325 325 325 326 325 325 326 326 324 323 323 323 323 323 322 322 322 324 323 322 324 326 328 329 331 330 328 326 324 321 320 320 320 320 316 310 308 308 308 309 310 308 305 304
317 319 326 335 328 320 321 322 324 329 328 320 315 313 313 313 314 314 314 314 313 314 315 315 315 315 315 315 315 315 315 315 315 315 315 315 316 316 316 315 315 315 316 316 315 315 316 318 319 320 322 323 325 325 326 326 327 326 326 327 326 325 324 324 324 324 323 323 323 323 323 323 323 324 326 328 328 329 330 331 329 327 325 324 324 324 323 317 310 308 307 307 308 308 307 304 304
317 318 331 328 317 320 322 320 321 325 327 319 314 313 313 313 314 314 314 314 313 314 316 315 315 315 315 315 314 314 315 315 314 315 315 315 316 316 316 315 315 315 316 316 316 315 315 317 318 319 321 322 324 325 326 327 327 326 327 328 327 327 325 325 325 325 324 324 324 324 324 324 324 324 326 327 327 328 329 331 331 329 328 327 326 325 325 320 313 308 306 306 307 307 306 304 304
317 316 325 322 313 320 320 318 320 321 320 315 314 314 314 314 314 314 314 316 314 314 316 315 315 315 314 314 315 315 314 314 314 314 315 315 315 316 317 316 315 315 316 316 316 316 315 315 316 317 319 320 322 324 325 326 327 327 329 329 328 329 327 326 326 325 325 325 324 324 325 324 324 324 325 326 327 328 329 331 331 331 330 329 328 326 325 321 315 310 306 305 307 306 305 304 304
316 313 321 323 318 320 317 318 323 324 318 314 315 314 314 314 314 314 314 316 316 315 316 315 315 315 315 314 314 314 314 314 314 314 314 315 315 316 317 317 316 315 315 316 316 316 316 315 315 316 317 318 320 322 323 326 327 327 329 330 328 328 328 327 326 327 326 326 326 325 326 325 325 325 326 326 326 327 328 330 331 332 331 331 329 327 326 322 315 311 306 304 306 306 305 304 304
315 313 321 323 317 318 317 317 320 323 317 312 314 314 315 315 314 315 314 315 315 315 316 315 315 315 314 313 314 314 314 314 314 314 314 315 315 315 316 317 317 316 315 315 316 316 316 316 315 315 316 317 318 320 322 324 326 327 328 330 329 329 329 328 327 327 327 327 326 326 326 326 325 324 324 325 325 325 326 327 329 331 331 331 329 327 325 320 315 312 306 304 305 305 305 304 304
314 318 326 321 315 317 317 320 320 319 319 314 313 314 315 315 315 315 314 314 315 315 315 315 315 314 314 313 314 313 314 314 314 314 314 315 315 315 315 316 316 316 316 315 315 316 316 316 316 316 316 316 317 319 321 323 325 326 327 329 329 328 328 328 328 328 327 327 326 326 326 325 325 324 324 324 324 324 324 324 326 328 329 330 329 326 324 319 315 312 308 305 305 305 305 304 304
317 326 327 315 315 316 317 322 318 315 318 315 313 313 314 315 315 315 315 314 314 315 315 315 314 314 313 313 313 313 314 314 314 314 314 315 314 315 315 315 316 316 316 316 316 316 316 316 316 316 316 316 317 318 319 322 324 326 326 327 328 328 329 329 328 327 327 327 327 327 325 324 324 323 324 323 323 324 324 324 325 326 327 328 328 327 324 319 315 312 310 308 306 305 305 304 303
318 325 323 317 320 316 313 317 314 313 316 314 314 313 313 315 314 314 315 315 314 314 314 314 314 313 313 313 313 313 314 314 314 314 314 314 314 314 314 314 315 315 315 315 316 316 316 316 316 316 317 317 317 318 319 320 322 325 326 327 327 327 329 331 331 329 329 329 328 328 327 326 324 322 323 324 324 324 325 324 324 325 326 327 328 328 324 319 316 313 311 309 307 306 304 304 303
315 319 323 324 320 313 311 314 314 314 314 313 314 313 313 314 314 314 314 314 313 313 314 313 314 314 313 313 313 313 313 314 314 314 314 314 314 314 314 314 314 314 314 315 315 315 315 315 316 316 316 316 316 317 318 319 320 322 325 327 326 326 327 328 329 330 330 330 329 328 328 327 327 324 321 323 323 322 324 325 326 326 326 328 328 327 325 321 317 314 313 311 309 308 305 304 303
314 318 323 320 312 313 315 314 315 315 314 313 313 313 314 314 313 314 313 314 314 312 312 312 313 313 313 313 313 313 313 313 314 314 314 314 314 314 313 314 314 314 314 314 314 314 314 314 315 315 316 316 316 316 317 318 320 321 323 325 327 329 333 331 328 328 329 329 328 327 327 327 329 329 326 323 321 322 324 323 325 326 325 327 327 326 325 322 320 318 315 313 312 311 308 305 303
316 316 316 314 311 315 316 314 315 315 314 314 312 313 314 313 313 313 313 314 314 311 311 311 312 312 312 312 312 313 313 314 314 313 314 313 313 313 313 313 313 314 313 314 314 314 314 314 314 315 316 316 315 315 317 318 319 321 322 324 326 326 331 332 331 333 331 330 330 330 329 328 328 329 329 326 322 323 324 322 323 327 329 328 326 325 325 324 322 319 318 316 314 314 312 309 305
317 316 312 313 313 315 316 314 315 314 313 313 312 313 312 311 312 312 312 312 312 310 311 311 311 311 311 312 312 313 313 314 314 314 314 313 313 313 313 313 313 313 313 314 314 314 314 313 314 314 316 316 315 315 316 318 319 321 322 324 324 324 329 328 329 333 332 331 331 332 333 331 329 328 327 326 324 322 323 326 326 327 329 327 327 326 324 323 320 320 321 319 316 316 315 313 309
318 318 313 313 313 313 315 313 313 312 313 313 312 312 311 311 312 312 310 310 310 310 310 310 311 311 311 312 312 313 313 313 313 313 313 313 313 312 312 313 313 313 313 313 313 314 314 314 313 314 316 316 315 315 316 317 319 320 321 323 323 326 332 329 329 331 329 328 326 327 331 331 332 331 330 329 326 321 320 326 326 323 321 320 325 326 324 321 321 324 325 320 317 318 317 316 314
317 318 314 313 313 313 313 312 313 313 312 313 312 310 310 311 312 310 308 308 309 309 310 310 310 310 311 312 312 312 312 312 312 312 312 312 311 311 312 312 312 312 313 313 313 314 314 314 314 314 316 316 316 316 316 318 319 320 321 322 323 324 326 325 329 332 330 330 327 327 328 328 330 332 333 330 328 324 320 321 322 321 322 323 325 326 325 324 322 323 324 321 318 319 319 317 316
314 314 313 312 313 313 313 313 313 312 313 312 311 311 310 310 311 309 307 308 308 308 310 310 310 311 311 311 311 312 311 311 311 311 311 311 311 311 311 311 312 312 312 313 313 314 314 314 315 315 316 316 316 316 317 318 319 321 321 322 323 324 324 323 324 328 330 333 332 330 329 328 329 329 331 330 328 326 321 324 325 323 325 328 328 326 325 325 324 323 323 323 321 320 321 319 317
312 312 312 312 312 312 313 313 312 312 312 311 312 311 309 309 311 310 307 307 308 309 310 310 310 311 312 312 311 311 311 311 311 311 311 310 310 311 311 311 312 312 312 312 312 313 313 315 315 315 317 317 317 317 318 319 320 322 324 324 324 324 325 324 323 323 326 329 328 330 331 330 329 328 329 329 329 325 320 324 325 321 322 324 324 325 326 326 325 324 323 323 321 320 321 320 319
312 311 313 313 311 312 312 311 311 312 312 311 310 310 309 310 311 309 306 308 309 309 310 310 311 311 311 311 311 310 310 310 309 310 310 310 311 310 311 311 311 312 312 312 312 312 313 314 315 315 316 316 317 318 318 321 322 324 326 326 326 325 325 325 324 324 324 324 324 328 330 330 329 327 327 326 328 325 320 322 324 323 325 324 323 324 325 325 325 324 324 323 321 321 321 321 320
312 311 315 316 314 315 312 309 309 311 313 311 310 313 314 312 310 307 307 308 309 309 311 310 310 310 310 310 310 310 310 309 309 309 310 310 310 310 311 311 312 313 312 313 313 313 313 314 315 316 317 317 317 319 320 321 323 324 325 326 325 325 325 325 325 324 325 324 324 327 328 327 326 326 325 326 327 325 323 325 327 326 326 326 325 325 325 325 325 325 324 323 322 321 320 320 320
313 310 312 316 317 319 312 308 310 310 311 310 311 319 320 311 306 306 307 308 309 310 311 310 309 309 309 309 309 309 309 309 308 309 309 309 310 310 311 312 312 313 314 314 313 313 314 315 316 317 318 319 319 320 321 323 324 325 325 325 325 325 325 326 326 325 325 325 324 325 325 324 324 324 325 325 326 327 326 326 326 324 324 326 327 326 326 325 325 326 325 324 323 321 320 319 319
315 310 314 318 316 323 317 308 310 312 311 310 311 320 320 310 306 307 308 308 308 309 309 307 307 307 308 308 308 309 308 308 308 308 308 309 310 311 312 313 313 314 315 314 314 315 316 317 318 319 320 321 321 322 323 324 324 325 325 324 325 325 324 325 326 324 323 323 323 324 324 323 323 323 323 323 324 324 325 326 325 325 326 325 325 326 326 325 325 324 324 324 322 321 320 319 319
320 314 322 322 315 324 322 308 308 312 311 309 312 320 319 310 306 308 308 307 308 308 306 305 306 306 307 307 307 308 307 307 307 307 308 309 310 311 311 312 313 314 315 316 317 318 318 319 320 321 321 321 322 323 323 324 324 325 325 324 324 323 323 325 326 325 324 324 325 325 325 325 326 325 324 325 325 325 325 326 325 325 326 325 325 325 325 323 323 322 322 323 321 320 321 320 319
322 316 322 325 316 319 319 310 307 308 309 310 312 317 319 310 304 307 307 306 308 307 304 304 305 306 306 306 306 306 306 306 307 307 308 309 309 310 311 312 313 314 315 316 317 318 318 319 320 320 321 321 321 322 322 323 324 324 322 322 323 322 323 324 325 324 324 324 325 325 325 325 325 326 325 325 326 325 325 325 324 324 323 323 324 324 323 323 323 323 323 322 321 321 322 321 320
324 315 317 322 318 315 318 317 310 307 310 312 312 314 316 310 303 305 306 306 307 305 303 303 304 304 305 305 305 305 305 306 307 307 308 309 309 310 310 311 312 313 314 315 316 316 317 317 317 318 319 320 320 320 320 321 322 323 322 322 323 323 322 323 323 323 324 323 323 324 324 324 323 323 323 323 323 323 323 322 323 322 321 322 323 323 323 323 322 322 322 321 321 321 322 322 320
329 321 318 320 317 315 317 318 312 310 314 316 314 315 315 312 306 304 304 305 306 304 302 302 302 303 304 304 304 304 305 306 306 307 308 308 309 309 310 310 311 312 313 314 315 316 316 317 316 316 317 318 318 318 319 319 320 320 321 321 322 322 322 322 322 321 322 322 322 322 322 322 322 322 322 322 322 322 322 321 321 321 320 321 321 321 322 322 321 321 321 321 321 321 321 321 320
327 326 325 324 320 317 317 317 312 309 314 317 315 317 316 314 312 305 302 303 304 302 301 301 302 302 303 303 304 304 304 305 306 307 307 308 308 309 309 310 310 311 312 314 315 316 317 317 316 317 317 317 317 317 318 318 317 317 318 318 319 319 319 320 320 318 319 319 320 321 321 321 321 321 320 320 320 320 320 320 320 320 319 319 319 320 320 320 320 320 319 319 319 319 319 319 319
320 323 324 323 321 318 316 316 311 306 313 319 315 316 316 314 314 305 301 303 302 301 301 301 301 301 302 303 303 304 304 305 305 306 307 308 308 308 308 309 309 310 311 312 313 315 316 317 316 317 317 317 317 316 316 316 315 316 316 315 314 315 316 318 318 318 317 317 316 316 317 318 318 318 318 318 318 317 317 317 318 318 318 318 319 318 318 318 318 318 318 318 318 317 317 317 317
316 319 319 319 319 318 314 313 312 307 312 318 313 314 316 315 314 304 301 303 301 300 300 299 300 300 301 302 302 303 303 304 305 306 307 307 307 307 307 307 308 309 310 311 311 312 314 314 315 316 316 316 316 315 313 313 312 312 313 311 311 312 313 314 314 314 313 312 312 311 311 312 312 313 314 314 315 314 313 314 314 314 315 316 316 316 316 316 315 315 315 315 316 315 315 314 314
315 317 316 316 316 316 316 312 311 309 311 317 315 313 315 316 309 302 300 301 300 299 299 298 299 299 300 301 301 302 303 304 305 306 306 305 305 305 306 306 306 307 308 308 309 309 309 310 311 312 312 311 310 310 308 308 308 308 308 308 309 309 308 308 308 307 307 307 307 306 306 306 307 307 307 308 308 308 308 309 309 310 310 311 311 312 312 313 313 313 313 312 311 311 311 311 311
314 316 315 315 314 316 320 315 312 311 310 315 315 313 315 314 306 301 299 298 298 298 298 298 298 299 299 299 300 301 302 304 305 305 304 304 304 305 305 305 305 305 305 305 306 306 306 306 306 306 306 306 306 306 305 305 305 305 305 306 305 305 305 305 305 305 305 305 305 305 305 305 305 305 305 305 305 305 305 305 305 305 305 305 305 306 307 307 308 308 308 307 307 306 307 307 308
315 315 313 314 315 317 320 316 313 314 311 311 312 315 320 317 311 306 300 298 298 297 297 298 298 298 299 299 300 300 302 303 303 303 304 304 304 304 304 304 304 304 304 304 304 304 304 304 304 304 303 304 304 304 304 304 304 304 304 304 304 304 304 304 304 304 303 304 303 304 304 304 304 304 304 304 304 304 304 303 303 303 303 303 303 303 303 303 303 303 303 303 303 303 303 303 304
317 318 314 313 316 317 318 315 314 317 318 313 312 319 326 323 318 311 302 299 300 298 297 297 298 298 298 299 299 300 301 301 302 303 303 303 303 303 303 303 303 303 303 303 303 303 303 303 303 303 303 303 303 303 303 303 303 303 303 303 303 303 303 303 303 302 302 302 302 302 302 302 302 302 302 302 302 302 302 302 302 302 301 301 301 301 301 301 301 301 301 301 301 301 301 301 302
319 319 315 313 313 316 317 316 316 321 321 312 309 317 325 326 323 312 302 302 301 298 298 297 297 298 298 299 300 300 301 301 302 302 302 302 302 302 302 302 302 302 302 302 302 302 302 303 302 302 302 302 302 301 302 302 302 302 302 302 302 302 302 302 301 301 301 301 300 300 301 300 300 300 300 300 300 300 300 300 300 300 300 299 299 299 299 298 298 297 297 297 298 298 298 299 299
322 316 314 315 314 316 318 317 318 321 319 314 312 315 318 322 321 310 302 305 303 300 299 298 297 298 298 299 299 300 300 301 302 302 302 302 302 302 302 302 302 302 302 302 302 302 302 302 302 301 301 301 301 301 301 301 301 301 301 301 302 301 301 301 300 300 299 299 299 299 299 299 299 298 298 298 298 298 298 298 297 297 297 297 296 296 296 295 294 294 294 294 293 293 294 294 295
321 311 311 315 314 316 318 317 317 315 314 318 319 314 315 321 320 310 303 308 309 304 302 299 297 298 299 299 299 299 300 301 301 302 302 302 302 302 302 302 302 302 302 301 301 301 301 301 301 301 301 301 301 300 300 300 300 300 300 300 300 300 299 299 298 298 297 297 297 297 297 296 296 296 296 295 295 295 295 295 294 294 294 294 294 293 293 292 292 292 292 292 291 291 291 291 291
312 306 310 313 312 314 315 315 316 313 313 320 321 315 316 322 324 316 310 313 314 307 302 300 298 298 299 299 299 299 300 300 301 302 302 302 302 302 302 302 302 301 301 301 301 301 301 301 300 300 300 300 300 300 300 300 300 299 299 299 299 299 298 297 296 296 295 295 295 295 295 295 294 294 294 293 293 293 293 293 293 293 292 292 292 292 292 291 291 291 291 291 290 290 290 290 290
306 310 315 315 316 316 316 316 316 315 318 321 318 315 315 319 323 320 314 315 315 309 305 300 297 298 299 300 299 299 300 300 301 302 302 302 302 302 302 301 301 301 301 301 300 300 300 300 300 300 300 299 299 299 299 299 299 299 299 298 298 297 296 295 295 295 294 294 295 294 294 294 293 293 293 293 293 292 292 292 292 292 291 291 291 291 291 291 291 290 290 290 290 290 290 289 289
307 319 320 317 320 317 317 319 316 317 323 319 312 311 313 317 322 321 315 313 311 309 307 302 298 298 299 300 299 299 300 300 301 302 302 302 302 301 301 301 301 301 300 300 300 300 299 299 299 299 299 299 299 298 298 298 298 298 297 297 297 296 295 295 295 295 295 294 294 293 293 293 293 292 292 292 292 292 291 291 291 291 291 291 291 291 290 290 290 289 289 289 289 289 289 289 289
312 321 319 320 322 318 319 321 317 318 320 313 308 311 312 314 320 320 316 314 309 304 304 301 298 299 299 299 299 299 300 301 301 302 302 301 302 301 301 301 301 300 300 300 300 299 299 299 298 299 299 298 298 298 298 297 297 297 296 296 296 295 295 295 295 295 294 294 294 293 293 293 292 292 292 292 292 291 291 290 290 290 290 290 290 289 289 289 289 289 289 289 288 288 288 288 288
312 317 318 322 323 322 326 322 316 318 316 309 307 311 313 314 316 316 313 309 303 299 300 300 299 300 300 300 299 299 300 300 301 301 302 301 301 301 301 301 300 300 300 299 299 299 299 298 298 298 298 297 297 297 297 297 296 296 295 295 295 295 295 295 295 294 294 293 293 293 293 293 292 292 292 292 291 291 290 290 290 290 289 289 289 289 289 288 288 288 288 288 288 288 288 288 288
312 315 316 320 323 326 327 323 323 323 317 310 308 312 319 320 315 308 303 300 298 299 300 300 299 300 300 300 299 299 300 300 301 301 301 301 301 301 300 300 300 300 299 299 299 298 298 298 298 297 297 297 296 296 296 296 296 295 294 294 294 294 294 294 294 294 293 293 293 293 292 292 292 292 291 291 291 291 290 290 290 290 290 289 289 289 289 289 288 288 288 288 288 288 288 287 288
311 312 314 318 321 323 319 316 318 318 316 313 311 314 319 316 310 301 297 297 297 298 299 299 299 298 299 299 299 299 300 300 300 301 301 301 300 301 300 300 300 299 299 299 298 298 298 298 297 297 297 296 296 295 295 295 295 294 294 294 294 294 293 293 293 293 293 293 292 292 292 292 292 291 291 291 291 290 290 290 290 290 289 289 289 289 289 289 288 288 288 288 288 287 288 287 288
312 311 317 316 314 319 319 312 308 309 315 317 313 316 315 311 311 305 300 302 301 298 297 298 299 298 298 299 299 299 300 299 300 300 301 301 300 300 300 300 299 299 299 298 298 297 297 297 297 296 296 295 295 294 294 294 294 293 293 293 293 292 292 292 292 292 291 291 291 291 291 290 290 290 290 290 290 289 289 289 289 289 289 289 288 288 288 288 287 287 287 287 287 287 287 287 288
315 315 317 313 309 316 320 316 314 314 318 318 314 315 316 315 316 311 305 307 307 301 297 296 297 297 298 298 299 300 300 300 300 300 300 300 300 300 300 299 299 299 298 298 297 297 296 296 295 295 295 295 294 293 293 293 293 292 292 292 292 291 291 291 291 291 290 290 290 290 290 290 289 289 289 289 288 288 288 288 288 288 287 287 287 287 287 287 287 287 287 287 287 287 287 287 287
312 313 312 313 316 319 317 317 320 320 320 321 315 312 314 315 317 314 310 312 311 304 298 296 296 296 297 298 299 299 300 300 300 300 300 300 299 300 300 299 299 298 298 297 296 296 296 295 294 293 293 293 293 292 292 292 292 292 291 291 291 291 290 290 290 290 290 289 289 289 289 289 289 288 288 288 288 288 287 287 287 287 287 287 286 287 286 287 287 287 287 287 287 287 287 287 287
307 309 308 311 316 318 317 316 318 319 321 322 317 315 317 316 315 317 314 311 309 306 301 298 296 296 297 298 299 300 300 300 300 300 300 300 300 300 300 299 299 298 297 297 296 295 295 294 294 293 292 292 292 292 291 291 291 291 291 290 290 290 290 290 290 289 289 289 289 289 289 288 288 288 288 288 287 287 287 287 287 286 286 286 286 286 286 286 286 287 287 287 287 287 287 287 287
309 311 311 312 313 314 316 314 314 318 322 323 320 318 318 315 313 314 312 310 307 306 305 300 296 297 298 298 299 300 300 300 300 300 300 300 300 300 299 299 298 297 297 296 295 294 294 293 293 292 291 291 291 291 291 291 290 290 290 290 290 290 290 290 289 289 289 289 289 289 288 288 288 288 288 287 287 287 287 286 286 286 286 286 286 286 286 286 286 286 286 286 286 286 286 286 286
312 312 312 313 313 314 316 315 313 314 317 319 319 318 317 315 310 309 310 309 305 302 302 300 297 298 299 299 300 300 301 301 300 300 300 300 300 300 299 299 298 297 296 295 294 293 293 293 292 291 291 290 290 290 290 290 290 290 290 290 290 290 289 289 289 289 289 289 289 289 288 288 288 288 288 287 287 287 287 286 286 286 286 286 286 286 286 286 286 286 286 286 286 286 286 286 286
Wind_Speed
3 3 3 3 4 3 3 3 2 3 3 2 1 0 1 2 1 1 2 1 1 2 1 1 3 5 1 1 1 2 2 2 1 2 1 2 6 7 6 3 2 3 5 9 13 14 16 16 15 15 14 14 14 14 13 12 11 10 9 9 8 7 6 6 5 5 4 4 3 2 1 3 4 3 3 3 4 4 3 3 3 3 2 2 1 1 3 4 4 4 4 4 6 6 5 4 3
1 1 1 2 1 1 1 3 2 2 4 3 1 2 2 2 1 2 2 1 1 1 0 1 3 3 2 1 1 1 2 2 1 1 2 4 5 6 6 3 2 3 5 8 11 13 15 16 15 15 15 14 13 13 13 11 11 10 9 9 8 7 7 6 6 6 5 4 4 3 2 2 3 3 2 2 3 3 3 2 2 2 1 0 0 1 2 2 3 5 4 4 6 6 6 5 4
3 2 2 2 2 3 2 3 2 1 3 3 1 2 2 1 2 4 4 2 1 2 0 1 2 3 1 1 2 1 1 2 2 2 2 4 4 6 6 4 2 2 5 7 9 11 13 14 15 15 14 14 13 12 12 11 10 10 10 10 9 8 7 7 6 6 5 4 5 4 3 3 2 1 1 2 3 3 2 2 1 1 0 1 1 2 2 2 2 5 4 4 5 6 7 7 6
5 4 3 2 3 4 3 3 2 3 3 2 1 2 2 2 3 4 3 2 2 2 1 1 1 1 1 2 1 1 3 3 3 2 2 5 4 6 7 5 4 3 4 6 7 9 11 13 14 14 14 13 13 12 11 11 10 10 10 10 9 8 7 7 7 6 5 5 5 5 5 3 1 1 2 3 4 5 4 2 0 1 1 2 3 3 3 5 3 4 4 4 6 7 8 10 10
6 5 4 2 2 2 2 3 2 3 2 3 2 2 3 4 3 4 3 2 1 2 3 2 2 0 1 1 0 1 3 4 4 3 2 4 4 7 7 6 5 3 3 5 7 8 10 11 13 13 13 13 13 12 10 10 9 9 9 8 8 7 7 8 7 6 5 6 6 6 4 3 2 3 3 5 6 7 6 3 0 1 2 3 4 4 5 7 5 4 4 5 7 10 12 13 11
6 6 6 5 4 3 3 4 3 3 2 3 3 2 4 4 5 5 5 2 2 3 3 3 2 1 0 0 1 1 3 4 5 3 1 3 4 6 7 7 6 5 3 4 6 8 9 10 11 12 12 12 12 11 10 9 9 9 8 7 7 6 7 7 6 5 5 5 6 6 4 3 2 2 4 6 7 8 8 5 1 1 3 4 4 4 6 8 8 7 6 6 8 10 12 11 9
7 5 4 5 5 4 3 3 3 2 1 3 2 3 5 4 4 5 5 2 2 2 2 2 2 2 2 2 2 2 5 4 5 3 1 1 3 6 7 8 8 6 4 3 5 7 8 9 11 12 13 12 12 11 11 10 9 9 8 7 7 6 6 6 5 5 4 5 5 5 4 2 2 2 4 6 7 8 8 5 1 2 3 5 4 5 7 9 10 8 6 6 8 8 10 8 7
8 4 2 4 3 4 3 3 2 1 0 3 3 4 5 6 3 3 3 1 1 2 2 1 1 2 1 4 3 4 7 6 6 3 1 2 3 5 6 8 9 8 6 3 4 6 7 9 10 12 13 13 13 12 12 11 11 10 9 8 7 6 6 6 5 4 5 5 5 5 4 2 1 2 5 6 7 7 7 5 2 2 3 5 5 6 7 9 11 11 9 8 8 8 8 7 6
7 4 3 4 2 3 2 1 0 1 2 3 4 5 4 4 2 1 1 1 2 2 3 1 0 2 2 5 4 6 9 11 10 5 3 2 2 4 5 7 9 9 7 4 2 4 5 7 9 11 12 13 13 13 12 11 11 10 9 8 7 6 6 5 4 4 5 5 5 5 4 3 2 3 6 7 7 7 6 5 4 3 4 4 4 5 8 9 11 13 13 11 10 8 7 5 4
7 5 3 3 3 3 2 0 0 1 3 4 5 5 3 2 2 1 1 1 2 3 4 3 0 2 3 3 5 7 10 12 13 9 5 3 2 3 2 4 6 9 9 6 3 2 4 6 8 10 11 13 13 13 13 12 11 11 9 9 8 7 7 6 5 5 5 6 6 5 5 4 3 4 6 6 7 7 6 5 5 6 5 4 4 6 9 11 12 12 12 11 10 8 5 4 3
5 5 4 4 3 2 2 2 2 2 4 5 4 3 1 1 1 1 2 1 2 3 3 4 1 2 3 2 5 7 9 11 13 12 8 4 3 2 1 0 2 5 7 7 5 1 2 4 6 8 11 12 13 14 13 12 11 11 10 10 10 9 8 7 6 6 7 7 7 6 5 5 4 5 6 7 7 7 6 5 5 6 7 6 6 8 11 13 13 11 10 9 8 7 4 3 2
2 2 4 4 3 2 2 2 2 4 5 4 1 3 3 0 0 1 2 2 4 3 3 4 2 4 3 2 4 5 8 11 12 12 9 5 3 2 2 3 2 1 4 6 5 3 0 2 4 6 9 11 13 14 14 13 12 12 11 11 10 9 8 8 7 7 8 8 7 6 6 6 6 6 6 7 7 7 7 6 5 6 7 9 9 10 12 14 14 12 10 8 7 6 3 2 2
3 2 4 3 1 2 3 2 2 3 3 2 1 3 4 1 1 1 1 2 4 2 3 4 2 3 3 3 2 2 7 13 11 10 7 5 2 1 3 5 5 3 1 3 4 4 3 1 3 4 7 9 12 14 14 14 13 13 11 11 11 10 9 9 8 8 8 7 7 7 7 7 6 7 7 7 7 8 8 8 7 7 8 10 10 11 12 14 14 13 11 8 6 5 3 1 2
4 3 4 3 0 1 2 1 1 1 1 2 1 4 4 1 2 2 2 2 2 1 5 3 1 3 3 4 3 4 10 12 10 6 3 3 2 1 1 4 6 5 2 1 2 3 4 3 3 3 5 7 10 13 14 15 15 13 12 12 12 11 11 10 9 8 8 8 8 8 8 8 7 8 8 8 9 9 9 9 9 9 9 9 9 10 11 12 13 12 11 8 6 4 3 1 1
5 4 5 3 2 1 2 1 1 4 2 3 2 5 2 3 4 2 3 2 2 5 7 3 2 3 3 4 5 10 13 10 8 5 2 1 1 1 0 2 5 6 6 4 3 3 4 5 5 4 5 6 8 10 13 14 15 14 13 14 14 13 12 11 10 9 9 9 9 10 10 9 9 9 9 9 10 11 11 11 10 9 10 10 9 10 10 11 11 11 9 7 6 5 3 2 0
5 4 4 3 2 1 3 2 1 3 2 4 1 5 4 2 3 3 2 3 5 7 6 4 5 5 4 5 7 12 12 10 9 6 4 2 3 2 2 2 4 6 8 7 6 5 5 5 6 6 6 6 6 8 11 13 14 14 14 15 15 15 14 12 11 11 10 10 10 11 11 11 11 11 11 11 12 13 13 13 11 11 11 11 10 10 10 10 10 9 7 6 6 4 3 2 1
4 3 4 3 2 2 3 4 3 3 3 4 2 4 3 0 2 5 7 6 4 5 7 6 5 4 5 7 9 12 12 11 9 7 6 5 5 4 5 4 5 6 7 8 8 7 7 6 7 7 7 7 7 7 9 11 13 14 14 14 15 14 15 13 12 12 11 11 11 11 11 11 11 11 12 13 13 14 15 15 13 12 13 13 12 12 11 9 8 8 5 5 5 5 3 2 2
3 3 3 2 2 2 5 6 6 4 2 3 1 4 2 1 4 7 7 4 3 6 7 4 2 1 5 9 11 12 11 9 8 6 6 6 6 6 6 6 7 7 7 8 8 8 8 8 8 8 7 7 7 7 7 9 11 12 13 14 14 14 13 13 12 12 11 11 11 11 12 11 11 11 12 12 13 14 16 15 14 13 13 13 13 13 12 9 8 6 4 4 4 5 4 3 3
3 3 3 1 5 3 5 7 6 5 1 4 4 4 2 2 5 6 4 7 8 7 5 3 2 5 7 8 7 7 7 6 5 4 4 4 5 5 5 6 7 7 7 7 7 8 8 8 8 9 8 7 7 7 7 7 9 10 12 13 14 13 13 14 13 12 12 12 12 12 12 12 12 12 12 11 12 14 15 15 14 13 13 13 13 14 13 10 8 6 4 4 4 5 5 4 4
2 3 2 3 5 3 4 6 5 5 4 5 4 3 4 4 4 2 2 9 8 3 2 3 8 12 9 7 6 4 3 3 3 3 2 1 1 2 3 4 5 6 6 7 7 8 8 8 9 8 9 9 8 7 7 7 7 8 9 11 12 11 13 13 14 14 13 14 15 15 14 13 13 13 12 12 14 14 14 14 13 13 12 13 14 14 15 13 9 6 4 4 4 6 7 6 6
1 3 3 4 3 1 3 3 3 5 6 5 4 5 6 3 1 1 1 5 4 2 1 4 11 12 7 5 5 6 5 5 5 5 5 4 3 3 2 2 3 4 5 6 7 8 9 9 9 9 9 9 8 7 6 6 6 7 7 8 9 11 14 15 14 13 14 15 14 14 14 13 15 16 15 14 15 14 13 13 13 14 13 14 15 15 16 14 12 10 7 6 5 6 8 7 7
1 1 3 4 4 1 2 1 2 4 5 6 5 4 4 3 3 3 2 3 3 4 6 7 9 8 3 3 3 4 5 6 6 5 5 4 3 3 3 3 3 4 5 6 6 8 9 10 10 10 10 9 9 7 6 5 5 6 6 6 7 9 12 15 15 14 14 14 14 14 13 13 15 17 17 17 16 13 13 14 12 15 17 14 15 16 15 16 17 15 11 10 8 8 8 9 9
0 1 1 2 4 3 3 2 4 6 6 7 6 5 4 4 5 5 4 4 5 7 7 5 4 3 1 2 1 3 4 6 6 7 7 6 5 5 4 4 4 6 6 7 7 7 8 9 10 10 11 11 10 9 8 5 4 4 3 4 5 5 8 10 11 13 14 13 15 17 16 16 15 18 20 17 16 14 13 14 12 14 17 14 15 18 18 19 19 16 14 15 13 10 10 9 10
2 1 2 1 4 5 4 6 9 10 11 11 10 9 6 4 4 3 1 1 4 4 2 1 4 3 2 1 1 3 5 6 7 8 9 8 8 8 7 7 7 8 8 9 9 8 8 7 8 10 12 12 11 10 9 7 5 4 2 2 2 5 9 9 8 12 13 13 16 16 17 18 16 20 20 14 15 16 14 15 14 15 17 16 16 17 18 17 14 13 16 19 16 13 12 11 10
3 1 3 2 5 7 8 11 13 13 13 12 12 9 5 4 4 1 2 2 2 3 4 5 6 5 3 2 1 3 5 6 6 7 7 8 9 8 8 8 8 8 7 7 7 7 6 5 4 9 12 13 12 11 10 9 8 6 5 5 3 5 7 8 10 13 13 12 13 12 16 16 15 18 19 16 18 17 13 13 14 16 18 20 15 11 14 16 14 15 18 19 17 15 14 12 11
1 1 3 5 8 11 12 13 11 11 12 11 9 5 2 1 2 2 3 4 6 7 7 6 5 3 0 3 5 5 5 5 6 6 6 7 6 6 6 6 7 7 6 6 6 5 5 4 1 7 11 12 11 11 11 11 10 8 7 8 7 6 5 6 10 13 14 14 10 7 10 14 14 17 17 16 17 15 11 12 13 13 14 18 14 11 15 17 17 17 17 18 19 16 14 12 11
0 2 6 8 10 13 12 12 12 11 11 9 7 3 2 1 3 3 2 6 8 7 6 5 3 1 3 5 6 7 7 7 7 6 5 5 3 4 5 6 7 7 8 7 7 6 6 5 2 5 9 11 11 11 12 11 10 9 7 7 8 7 6 6 8 11 14 16 13 8 7 7 10 14 15 13 12 12 9 11 12 11 11 14 14 13 15 16 17 18 17 18 17 15 14 13 11
1 4 7 9 12 13 11 10 9 5 5 4 4 2 3 1 3 2 1 6 7 6 5 3 1 1 3 4 6 7 8 9 9 7 5 4 4 5 6 6 7 8 8 7 8 8 7 5 3 3 6 10 11 12 12 12 11 10 9 8 8 8 8 7 7 9 11 14 15 15 10 5 5 10 13 11 9 8 4 6 10 10 11 13 12 12 13 14 15 16 17 15 14 14 13 12 11
2 5 4 8 10 9 7 6 3 0 1 1 1 0 4 3 1 3 1 7 7 5 4 2 1 1 2 3 5 6 8 9 8 8 8 7 7 8 8 9 9 9 9 9 9 7 5 3 2 2 5 8 11 12 12 12 11 11 10 9 8 8 8 6 5 6 7 10 13 14 11 7 7 8 8 7 5 5 3 6 10 10 9 9 10 11 12 13 13 13 13 12 13 14 13 11 11
2 3 2 5 8 5 4 5 3 1 1 1 2 2 4 4 2 3 2 7 5 4 3 3 2 1 1 2 4 5 6 7 7 8 9 8 8 8 9 10 10 10 10 9 8 6 5 3 2 3 5 7 10 11 12 12 12 11 10 10 9 8 8 6 4 4 5 8 9 10 10 9 9 9 7 6 5 4 4 8 10 9 8 7 8 8 8 10 10 10 10 10 12 13 14 13 12
1 1 2 2 2 5 5 5 4 2 1 2 3 1 3 4 3 3 3 8 7 5 4 3 3 2 1 2 3 5 5 6 7 7 7 8 8 8 9 9 9 9 9 8 8 7 5 4 3 4 5 7 8 9 10 10 10 10 9 9 9 8 8 7 5 5 6 6 7 7 8 8 8 8 8 6 6 6 7 9 10 9 8 7 7 6 7 8 8 9 9 9 10 11 13 14 13
2 1 3 2 1 5 7 5 3 1 1 2 4 2 3 4 3 5 1 7 7 5 5 5 4 4 2 2 3 3 4 5 5 5 6 7 7 8 8 9 8 8 9 9 10 9 7 6 6 6 6 7 8 8 8 9 8 8 8 7 8 7 7 5 3 3 4 4 3 3 3 4 5 5 5 5 5 6 7 8 8 7 6 8 9 8 9 10 10 10 9 8 9 9 11 12 13
3 0 3 2 2 3 5 3 3 2 1 3 2 2 2 3 1 5 2 6 5 5 6 5 5 4 3 2 2 2 2 3 4 5 6 7 7 8 8 8 8 8 9 9 9 8 8 8 8 8 9 9 8 8 7 8 7 7 7 6 5 5 5 5 3 2 2 3 2 2 2 2 3 2 1 3 4 4 5 6 7 7 7 9 12 10 10 12 12 10 9 10 12 11 13 13 12
3 1 2 3 3 2 3 3 3 5 1 1 3 1 3 4 3 5 4 5 3 6 7 6 5 4 3 2 2 2 3 4 5 6 7 7 8 8 7 7 7 8 8 7 7 8 9 9 9 9 11 12 11 10 9 9 9 8 8 8 8 7 6 6 4 1 2 3 4 3 4 5 4 4 5 4 5 6 5 7 8 9 9 10 11 11 11 12 12 11 12 14 15 15 17 16 14
3 2 2 3 3 3 3 3 2 4 3 2 3 3 6 3 4 7 6 4 3 7 7 6 5 4 4 3 3 3 4 6 7 7 8 7 7 7 6 6 7 7 7 8 8 9 10 11 11 11 13 13 13 12 11 10 10 9 8 7 8 7 5 4 2 2 1 1 2 2 2 4 5 6 6 6 8 9 9 8 8 8 8 9 9 10 11 12 12 12 13 15 15 15 17 17 15
6 5 4 3 3 4 4 4 3 2 2 4 3 5 8 5 1 5 6 5 5 7 6 5 5 4 4 4 3 4 5 7 8 8 8 7 6 6 6 6 7 7 8 9 9 10 12 13 13 14 15 14 12 13 12 10 9 9 8 5 6 7 5 4 3 1 2 0 0 1 2 4 5 7 8 9 10 11 11 11 11 11 11 11 11 12 11 10 12 12 11 12 13 13 14 15 16
6 5 4 4 4 4 4 3 4 1 1 5 4 5 9 7 2 3 2 3 6 6 5 5 4 4 4 5 5 6 8 9 9 8 7 7 7 7 8 9 9 9 10 11 11 12 13 14 14 15 14 11 9 10 10 9 8 8 7 6 6 8 7 6 5 3 2 1 2 3 4 6 7 8 9 10 10 10 11 12 12 13 12 13 14 14 13 12 13 13 12 12 12 13 14 14 16
5 4 3 3 4 5 4 1 3 1 2 3 1 2 9 7 2 4 2 2 4 3 3 4 5 6 6 7 8 9 10 11 10 10 11 11 12 12 13 14 14 14 15 15 14 15 15 14 14 13 11 9 8 9 9 11 12 10 10 10 10 10 9 6 5 5 4 4 4 4 3 3 4 5 6 8 9 10 10 11 11 12 13 15 15 15 15 15 15 15 16 16 16 16 16 16 17
3 3 3 3 3 3 4 2 3 2 2 3 1 1 8 6 1 3 3 2 3 2 4 5 6 7 8 8 9 11 12 13 14 15 16 17 17 18 19 20 20 21 21 20 20 20 19 18 17 16 14 13 14 14 15 17 18 17 16 16 15 15 15 12 11 12 10 9 9 9 8 8 7 6 6 6 6 7 7 8 9 9 11 12 13 13 14 15 16 17 19 19 18 17 17 17 18
3 3 3 4 2 1 3 3 3 2 0 2 0 2 6 2 1 2 2 4 5 5 5 6 7 7 8 9 10 12 15 17 19 20 21 21 22 23 24 24 25 25 25 25 24 24 23 23 22 21 20 20 20 19 20 21 21 20 20 19 18 18 18 16 15 15 13 12 12 12 11 11 11 10 10 9 9 9 9 8 8 8 9 9 9 10 11 12 13 14 16 16 16 15 15 16 16
3 5 6 5 3 5 6 2 2 2 3 0 2 3 5 2 3 2 1 4 5 5 6 7 7 9 10 10 12 14 17 20 22 23 24 25 25 25 26 26 26 26 26 26 25 25 25 24 23 23 22 22 20 20 20 19 19 19 19 18 18 18 18 15 14 15 13 12 12 13 13 13 12 12 12 12 12 11 11 11 11 11 10 10 10 10 11 11 11 12 13 14 15 16 16 16 15
3 5 10 10 7 7 5 1 3 2 3 2 2 2 5 2 2 3 2 2 2 3 5 7 8 10 11 12 15 17 19 22 23 25 26 26 26 26 25 25 24 24 25 25 24 23 23 22 22 21 21 20 19 19 18 16 16 17 16 16 15 14 14 14 14 15 14 13 13 13 13 13 12 12 12 12 13 13 13 13 13 13 13 13 14 14 13 13 14 15 15 16 16 16 16 16 15
2 4 8 10 7 5 4 3 2 1 3 2 2 3 4 5 4 2 2 2 2 2 3 6 9 11 13 15 17 19 21 24 25 27 27 26 26 25 24 23 23 23 23 22 22 21 20 20 20 19 19 19 18 17 16 14 14 14 13 13 12 10 11 14 15 14 13 13 13 12 12 12 12 12 12 13 13 13 13 13 14 14 14 15 15 15 15 16 17 17 18 18 17 17 17 16 17
3 3 5 7 7 7 6 6 4 3 2 2 2 2 2 4 4 2 1 2 2 3 3 5 10 13 15 17 18 20 22 24 26 27 27 26 25 24 23 22 22 22 21 20 19 19 18 18 17 17 17 17 16 16 14 12 11 10 10 10 11 11 12 15 14 13 13 12 10 11 11 11 12 12 12 12 12 13 13 13 13 14 14 14 15 15 16 16 16 16 16 17 18 18 19 18 18
4 2 6 6 6 6 5 5 3 1 1 3 3 1 1 4 4 2 1 2 6 6 6 8 13 16 17 19 20 21 23 25 27 27 26 25 24 23 22 21 21 21 20 18 17 16 15 15 14 14 14 14 14 12 10 10 9 8 9 9 11 14 14 14 13 12 13 11 9 11 11 11 11 11 11 12 12 12 12 13 13 13 13 14 15 15 15 15 15 16 16 17 18 19 19 19 19
4 6 7 6 5 5 4 4 3 2 0 5 5 4 3 4 4 2 1 3 7 6 6 9 16 19 20 22 23 23 24 25 27 27 26 25 23 22 21 21 20 19 18 16 15 14 13 13 12 11 12 12 12 10 8 9 9 8 9 9 11 13 14 13 11 11 11 9 9 10 10 11 11 11 11 11 12 12 13 13 13 14 14 14 15 15 15 16 17 17 18 18 19 19 19 20 20
9 7 6 6 5 4 3 2 3 2 2 6 6 5 4 3 4 4 4 4 5 6 5 7 14 20 24 25 25 25 25 27 27 27 26 24 23 22 21 20 19 18 17 15 14 13 12 11 9 9 11 10 9 9 7 7 8 7 8 9 10 12 12 10 9 9 10 8 8 10 10 10 10 10 11 11 12 12 13 14 14 15 15 15 15 16 17 17 18 19 19 19 19 19 20 20 20
7 4 4 4 3 3 3 3 3 1 5 5 3 2 3 4 4 4 5 4 4 7 8 10 15 22 28 28 26 26 26 27 28 27 26 25 24 22 21 20 18 17 16 14 13 12 10 9 6 6 9 9 8 7 6 6 6 6 7 8 9 10 10 8 6 7 8 8 9 10 10 10 10 10 11 11 12 13 13 14 14 14 15 15 16 17 17 18 18 18 19 19 20 20 21 21 21
4 4 6 4 2 2 2 3 1 3 5 3 2 1 3 5 6 7 6 5 5 6 8 15 23 28 30 30 28 27 28 28 29 28 27 26 24 23 21 20 18 17 15 13 12 10 9 8 6 4 7 8 7 6 5 5 5 6 7 6 7 8 7 6 6 6 7 8 9 9 9 10 10 11 12 13 14 15 16 16 16 16 16 17 17 17 17 17 18 18 19 19 20 20 21 22 22
4 5 6 4 2 1 3 3 2 4 4 2 2 1 2 4 5 6 6 4 5 5 5 14 27 32 33 32 30 29 29 29 29 29 27 26 24 23 21 19 18 16 15 13 12 10 8 7 6 4 5 7 7 6 5 4 5 5 6 6 6 6 6 6 6 7 7 8 8 9 9 10 11 11 12 14 14 15 16 16 17 17 17 17 17 17 17 17 18 19 19 19 20 20 21 21 22
4 3 5 4 4 4 4 4 3 4 2 2 3 2 4 4 2 3 4 3 3 5 5 10 20 27 30 31 31 30 31 31 30 30 28 26 24 23 21 20 18 16 15 13 12 10 8 7 6 5 5 6 6 6 5 4 4 5 5 5 6 5 5 6 6 7 8 8 9 10 11 11 12 13 13 14 15 15 16 17 18 18 18 19 19 19 20 20 21 21 21 22 22 22 22 22 23
2 2 4 3 4 4 2 3 4 2 1 2 2 3 4 4 2 2 3 3 3 5 6 9 16 22 26 30 32 33 33 33 32 31 29 27 25 23 22 20 18 17 15 14 12 11 9 8 7 6 5 6 6 6 5 4 3 4 4 3 3 4 4 4 5 6 6 7 8 9 10 11 12 13 14 15 16 17 18 19 20 20 21 21 22 22 23 23 24 24 25 25 25 26 26 26 26
2 2 4 4 3 6 4 2 1 3 2 4 3 3 3 1 2 2 2 2 3 3 4 9 16 21 26 31 35 36 36 34 33 32 30 28 26 25 23 21 19 17 15 14 13 11 10 9 8 7 7 7 7 6 5 4 3 3 2 2 2 2 3 3 4 5 5 6 7 8 9 9 10 12 13 14 15 16 16 17 18 19 20 20 21 22 23 23 24 25 26 27 28 28 29 30 30
5 4 5 3 2 4 3 2 2 2 3 4 2 4 3 2 2 2 2 3 6 4 4 7 14 21 27 33 38 38 37 35 33 32 30 29 27 25 23 21 19 17 16 15 14 13 12 11 9 8 8 8 8 7 6 4 3 2 1 1 0 1 2 3 4 4 5 6 7 8 9 10 11 12 13 13 14 14 15 15 15 16 17 17 18 19 20 21 22 24 25 26 28 29 30 31 32
4 4 3 4 3 1 2 2 2 2 3 4 2 2 3 4 5 3 5 9 9 6 5 6 13 23 30 34 38 38 37 36 35 34 33 31 29 26 24 22 20 19 18 17 16 15 14 13 11 10 10 9 8 7 6 5 4 3 3 2 2 2 2 3 4 5 6 7 9 10 11 11 12 12 13 13 13 14 14 15 15 15 16 17 18 19 20 22 23 24 26 27 28 29 31 32 33
3 2 2 2 2 4 3 2 2 3 3 3 3 2 3 5 6 9 13 14 11 9 7 9 17 27 33 36 40 42 41 40 39 37 35 32 29 26 24 23 21 21 20 18 18 16 15 14 13 12 11 10 9 8 7 6 6 5 5 4 3 3 3 4 5 6 7 8 10 11 12 13 13 13 13 13 14 14 14 15 16 17 18 19 20 21 23 24 26 27 28 29 30 31 31 33 33
3 3 4 2 1 2 1 1 2 3 3 2 3 4 4 4 4 9 11 10 10 12 11 12 21 30 34 38 42 44 45 44 41 39 36 32 30 27 26 25 23 22 21 20 19 18 17 16 14 13 12 11 11 10 9 9 8 7 6 4 3 4 4 5 6 7 9 10 12 13 14 15 15 15 15 15 15 16 16 17 18 19 20 21 23 24 26 27 28 29 31 31 32 32 33 33 34
6 6 7 7 5 4 2 4 1 2 2 3 2 5 5 3 2 4 5 4 7 13 14 14 23 32 36 38 42 45 47 46 43 39 36 33 31 29 28 27 25 24 23 22 20 20 19 17 16 15 14 13 12 12 11 10 9 7 6 4 4 4 5 6 8 10 12 14 15 16 16 17 17 17 17 17 18 18 19 20 21 22 23 24 26 27 28 30 31 32 33 33 33 34 34 34 35
Wind_Direction
278 255 248 255 274 278 325 1 90 24 62 92 329 80 234 240 306 285 291 297 274 287 216 244 156 154 163 132 242 231 206 181 170 86 102 333 352 349 355 27 75 89 148 171 185 187 184 186 191 193 192 189 190 193 196 201 203 204 205 212 220 226 236 253 271 280 275 256 244 227 142 117 115 111 99 85 73 66 63 58 76 88 86 107 125 347 354 356 11 16 9 2 2 4 5 5 9
15 161 219 217 292 288 285 25 94 352 50 84 290 183 274 301 313 230 212 196 177 343 293 188 172 201 273 298 311 244 220 255 292 36 56 356 357 356 1 19 56 103 140 160 180 189 187 186 189 195 199 199 198 198 200 205 205 207 210 216 226 230 235 254 272 280 275 249 232 210 174 155 139 141 118 79 63 55 52 48 77 97 80 47 15 277 332 352 14 9 354 346 349 358 2 354 343
56 98 100 152 64 72 118 38 90 71 72 90 286 236 303 307 238 231 220 234 281 352 346 172 180 213 235 335 332 111 50 333 348 20 46 15 13 14 12 19 40 103 138 150 171 189 191 188 187 192 199 203 205 204 204 205 205 209 214 223 234 237 237 249 265 275 266 239 223 213 208 197 177 182 69 47 44 20 1 14 111 143 281 299 285 270 279 280 346 3 341 322 327 343 352 346 333
62 74 61 124 90 65 78 40 118 114 103 140 328 272 266 217 246 258 271 319 324 5 31 65 132 191 240 337 329 131 17 26 44 45 36 22 30 25 22 27 41 82 129 144 158 181 194 193 189 190 195 200 205 206 202 202 204 211 219 230 240 242 242 247 258 266 255 235 219 212 219 218 231 293 340 6 5 352 340 341 178 189 222 236 255 263 273 275 316 5 345 309 308 320 328 328 323
52 47 36 136 124 59 85 70 101 91 143 180 97 276 254 219 255 293 322 15 51 41 20 14 86 25 265 328 263 139 24 41 42 32 10 16 41 35 29 34 44 64 111 140 149 167 189 197 195 192 193 197 202 202 199 202 204 209 220 230 235 237 243 248 254 258 251 237 222 215 223 235 270 310 334 353 356 354 348 339 220 179 206 221 239 251 267 281 305 327 319 308 304 307 313 316 316
37 35 46 95 100 80 110 86 90 87 181 178 113 259 269 232 239 303 337 53 83 43 21 19 46 349 128 41 325 40 21 23 13 10 1 15 52 45 41 44 48 54 91 137 145 158 178 193 199 197 195 197 199 200 199 200 203 208 217 224 226 231 239 244 249 253 251 237 223 222 230 254 294 323 329 341 345 353 354 339 337 153 217 233 245 261 273 289 303 301 297 303 303 306 315 318 319
21 15 45 90 71 49 99 99 136 124 171 184 154 239 277 278 250 307 342 86 86 45 45 23 345 342 110 6 349 43 22 22 7 356 355 42 73 57 54 56 53 48 68 122 147 157 168 184 195 200 200 201 201 202 200 198 202 209 213 218 221 225 231 232 238 241 238 232 229 232 235 261 312 316 308 321 328 341 353 337 319 155 218 240 252 275 288 298 305 303 300 305 305 310 321 327 328
10 8 53 89 41 28 89 99 164 173 138 228 254 243 275 306 283 303 345 71 18 21 28 347 337 22 69 338 354 44 30 32 16 12 94 112 94 68 66 61 55 45 49 90 144 163 169 177 188 197 201 203 206 206 203 201 205 211 212 217 221 223 230 228 234 235 228 225 225 239 251 270 285 281 294 308 315 326 342 328 297 199 226 245 256 275 294 308 312 315 323 322 317 319 320 324 329
12 23 65 78 70 34 52 53 137 239 270 258 256 252 279 307 281 304 1 4 350 344 348 346 41 26 343 341 32 60 47 46 37 47 73 101 98 65 73 61 53 43 37 54 111 170 178 180 185 195 199 203 209 211 208 206 208 214 214 218 224 226 233 236 243 242 238 235 224 231 250 257 245 271 291 298 302 309 322 312 282 248 248 254 268 286 298 307 307 310 320 326 327 325 320 323 333
18 37 82 82 76 52 34 346 321 259 259 267 265 271 281 283 270 294 6 6 351 332 346 7 120 20 356 359 54 67 58 49 41 43 41 51 62 36 67 60 51 44 36 33 49 149 187 192 192 196 200 204 210 214 215 212 212 218 218 219 225 228 234 241 248 248 248 251 245 235 241 249 245 269 284 286 289 292 305 306 280 268 278 284 293 306 312 316 316 320 329 335 335 332 332 341 354
18 36 77 83 70 97 139 198 274 286 274 295 294 312 330 255 277 303 10 24 332 320 348 11 29 8 3 29 64 73 60 43 31 28 28 22 360 349 316 110 59 51 43 33 29 52 182 203 205 205 205 206 211 217 220 218 216 221 221 222 227 228 232 239 243 249 251 254 258 253 249 252 249 265 273 272 277 285 295 299 285 279 289 299 306 313 321 328 334 344 349 349 346 341 350 1 31
25 26 57 87 102 155 166 174 268 292 302 331 351 27 35 37 65 345 6 9 331 331 348 2 16 3 360 40 80 96 43 25 17 11 15 15 343 311 267 233 209 87 61 42 28 18 2 212 216 216 216 213 214 219 222 221 221 224 225 226 231 231 231 237 238 242 248 252 258 260 259 255 250 258 260 262 270 281 283 277 278 285 290 296 304 310 320 332 342 352 349 346 346 344 358 13 55
84 140 73 95 144 154 140 154 270 311 337 335 244 351 359 339 32 34 57 345 323 349 360 355 22 10 350 345 46 149 358 1 1 359 8 18 357 309 262 242 237 229 76 47 25 3 345 295 236 225 226 223 221 221 224 225 223 226 228 229 232 234 234 236 236 238 243 246 248 249 252 249 247 251 252 259 262 263 266 267 270 281 291 294 300 305 317 331 339 347 345 342 342 345 359 13 71
88 139 92 114 82 128 146 97 259 93 26 274 294 343 335 343 42 75 102 12 313 354 348 340 1 1 343 345 6 330 335 343 344 347 3 20 22 359 260 240 241 239 248 345 355 346 334 314 283 249 234 230 229 226 227 228 225 223 227 234 234 233 238 240 239 237 238 240 242 244 246 246 246 246 248 255 255 253 256 262 268 280 290 292 297 301 312 326 334 339 340 341 343 345 349 352 90
86 112 92 112 53 53 177 147 143 114 141 224 10 3 22 97 45 56 112 47 300 315 325 321 342 336 339 348 336 324 325 327 328 328 331 356 71 21 200 213 227 234 242 252 282 302 307 305 297 281 258 240 234 232 232 231 229 223 221 233 238 236 239 242 242 241 240 241 243 245 244 244 243 242 242 245 249 253 255 259 264 274 281 283 288 295 306 320 330 332 333 341 341 340 335 323 346
74 93 80 86 90 166 171 172 156 108 183 211 81 33 77 98 23 10 340 324 298 309 314 307 325 321 332 329 308 311 309 309 310 298 285 230 190 187 186 194 210 224 233 241 254 264 277 283 286 287 281 268 246 234 234 234 235 232 225 229 238 242 244 244 244 244 240 239 244 248 245 242 241 243 245 246 249 253 256 258 258 262 269 278 285 289 299 314 327 327 334 346 335 328 323 309 284
54 75 71 66 138 192 172 184 177 138 252 236 104 54 82 68 355 348 322 311 295 307 316 316 322 324 325 308 297 301 297 296 292 281 276 232 205 200 197 198 203 215 225 234 241 247 252 253 261 270 278 281 271 250 235 233 234 236 233 231 236 242 249 250 247 246 243 241 243 247 248 245 244 246 248 250 252 254 259 260 260 260 264 276 283 284 292 306 322 327 342 353 331 313 303 292 270
46 100 79 66 169 176 171 186 186 159 264 255 21 21 69 26 332 339 326 302 307 321 334 7 88 39 313 300 296 297 294 292 283 269 260 235 221 212 210 209 207 213 218 227 234 240 242 241 244 247 257 269 275 273 254 239 232 234 235 235 236 238 248 257 258 254 250 251 251 252 255 252 248 246 248 253 256 259 263 263 266 264 261 271 278 281 288 297 312 328 347 351 333 312 294 276 261
69 109 79 193 199 203 187 186 188 175 275 285 318 348 33 336 312 339 333 302 326 340 354 72 70 332 318 312 312 303 298 292 289 274 253 240 231 222 221 221 217 219 219 225 230 236 238 239 243 241 242 246 258 271 270 258 240 234 233 237 239 235 235 243 253 256 253 255 252 252 256 257 256 252 247 249 255 259 265 268 272 269 262 264 271 277 280 284 299 321 346 343 336 318 300 276 256
87 98 82 234 218 225 217 206 215 226 278 296 311 314 315 322 296 326 317 306 333 19 21 18 332 328 331 341 4 11 359 354 358 7 353 322 287 266 245 234 228 229 229 233 235 239 239 235 236 237 237 235 238 250 263 266 255 243 235 238 241 242 241 236 237 241 245 250 250 248 251 255 257 258 255 249 251 253 258 265 267 268 263 260 267 279 283 283 293 310 334 337 336 325 309 289 264
135 106 145 208 185 216 253 229 261 272 280 287 291 301 318 347 317 297 317 315 339 74 23 337 320 317 325 353 27 39 35 32 31 34 29 24 8 351 329 302 263 250 247 246 249 251 253 247 236 227 227 230 228 229 242 257 259 252 241 241 244 239 245 250 248 244 244 248 257 260 259 261 257 257 258 254 256 254 253 256 261 269 263 259 271 282 285 287 296 307 325 336 334 330 314 296 277
125 106 165 170 149 197 326 40 311 300 290 289 286 301 319 337 322 289 260 279 297 313 314 313 306 297 310 19 45 35 25 21 20 21 19 19 3 350 337 329 309 294 279 269 269 267 266 261 249 227 215 219 222 214 215 233 245 251 248 248 250 231 232 243 246 253 257 257 268 270 266 269 264 262 262 260 260 256 255 254 257 266 256 255 278 283 281 287 299 306 318 333 334 333 322 300 283
76 282 196 179 189 231 296 311 312 310 295 291 287 289 291 304 312 291 265 258 277 299 306 303 278 245 175 55 38 10 11 7 4 1 2 2 350 340 332 328 320 312 307 303 300 294 286 268 250 227 208 205 212 207 197 203 213 237 252 249 258 247 251 252 237 246 259 265 269 266 266 266 263 265 264 264 265 261 258 252 251 260 254 258 278 277 279 289 303 309 313 322 327 330 326 308 288
108 266 307 295 242 256 282 294 304 301 291 292 289 283 285 297 291 291 329 253 274 284 287 194 187 178 158 177 325 358 5 1 357 355 352 347 343 343 341 338 336 331 329 326 324 322 316 288 249 220 203 197 202 204 191 182 178 188 192 205 226 216 239 254 244 247 253 260 263 259 263 267 269 269 264 269 285 279 261 251 252 255 252 252 263 272 281 293 302 306 304 309 318 326 326 315 299
112 244 303 318 283 288 295 296 298 296 294 297 290 277 284 295 260 296 53 184 200 167 157 142 151 157 166 183 28 20 6 1 359 354 346 343 343 345 343 340 339 335 332 334 341 343 342 327 252 214 200 193 194 197 189 176 168 167 165 165 169 190 211 223 231 242 242 249 258 252 253 259 268 273 267 268 283 285 268 259 261 259 254 245 251 281 291 295 299 300 303 305 311 318 321 317 307
175 222 302 297 294 301 301 296 294 291 292 293 286 281 350 323 213 58 47 160 155 153 161 147 155 183 55 14 15 15 9 4 359 354 347 346 343 336 339 346 347 347 352 0 7 8 15 21 211 201 196 192 191 193 188 176 169 169 169 165 166 185 201 199 218 233 236 242 254 255 254 259 263 267 269 268 274 283 272 262 266 273 269 247 251 293 293 291 298 301 302 302 305 312 318 317 310
279 326 310 292 298 306 301 292 290 286 285 281 266 271 42 154 157 88 82 144 149 162 167 154 175 267 359 360 356 1 2 4 5 3 346 333 334 343 353 358 359 5 9 12 15 22 31 39 83 180 192 190 188 189 185 177 171 166 167 172 170 176 185 191 206 216 224 236 242 237 244 264 261 255 262 269 280 288 270 258 267 279 282 262 263 285 287 288 297 301 299 299 303 308 313 316 314
1 343 313 300 316 313 303 296 292 283 284 287 237 229 49 97 137 89 158 160 166 183 174 160 202 345 3 352 353 355 354 2 7 5 359 350 6 20 23 19 14 13 11 12 18 22 28 32 53 154 188 190 187 186 181 175 170 166 167 172 173 171 170 181 198 198 207 222 226 224 227 240 243 248 256 261 273 285 265 253 273 277 276 273 272 277 283 289 294 297 298 301 303 300 304 312 317
2 16 325 310 338 329 321 335 320 94 323 347 140 297 17 8 38 50 93 158 167 193 184 184 228 6 8 356 355 356 355 359 359 4 21 31 30 30 32 32 29 26 22 23 25 24 25 34 66 141 175 186 183 180 177 171 167 165 166 165 165 168 159 161 195 195 203 211 209 216 226 229 224 236 247 237 247 274 263 259 271 270 261 261 265 276 284 286 289 293 297 301 298 295 297 302 314
331 38 30 322 349 329 332 7 339 352 343 151 116 307 314 306 319 48 131 166 180 222 197 187 183 120 24 9 359 359 358 354 1 16 32 43 42 40 42 40 36 33 34 32 32 34 32 42 99 144 158 171 174 174 172 167 164 161 162 165 161 163 161 159 194 189 200 215 206 213 226 230 227 227 227 217 219 241 251 258 262 258 257 257 261 276 282 279 287 293 291 293 293 296 298 299 311
338 16 33 1 360 283 308 355 341 8 24 169 143 262 261 244 300 9 194 205 221 228 176 161 152 125 90 41 8 353 354 359 17 33 45 51 53 54 53 51 45 43 43 41 45 52 52 61 94 129 146 157 163 165 164 161 163 161 160 165 160 165 172 173 195 194 197 217 214 216 224 235 243 234 229 231 223 225 241 248 251 255 262 262 255 264 273 268 269 272 269 276 286 293 295 296 300
24 334 312 344 157 270 310 351 13 67 12 65 127 226 275 214 279 2 172 204 213 190 144 134 127 111 100 55 15 352 360 17 39 56 61 64 65 64 62 57 54 54 53 54 59 65 69 78 92 115 129 138 148 153 159 160 160 162 162 165 164 167 174 172 170 171 173 184 193 199 206 233 259 240 231 256 251 240 249 252 259 266 252 254 263 262 261 262 260 260 263 272 280 282 284 288 290
3 78 250 273 192 277 319 342 20 43 192 24 75 230 292 170 209 12 125 186 188 150 124 115 109 98 95 65 34 20 35 63 76 81 78 78 77 71 69 66 62 61 62 65 70 77 81 87 96 108 111 113 119 122 128 134 135 145 150 144 143 148 154 149 117 97 113 91 80 74 37 341 312 333 334 309 297 280 276 276 286 280 252 258 274 271 258 267 274 269 267 273 277 277 275 276 281
312 22 231 250 212 219 302 294 349 23 85 6 18 275 255 170 113 41 106 169 170 125 112 106 101 93 89 74 65 75 94 108 103 99 93 86 82 77 74 74 76 75 77 80 79 86 91 92 99 103 104 103 102 104 106 112 117 124 128 125 126 129 123 114 109 82 63 31 12 16 10 8 5 1 10 2 347 341 314 295 292 281 269 269 274 272 267 275 288 284 272 270 271 271 273 275 276
189 176 199 253 241 223 253 258 295 8 16 348 6 295 268 206 95 47 77 134 143 115 108 107 100 92 90 81 81 88 102 115 112 105 98 91 84 80 80 81 86 90 93 95 91 93 97 96 97 99 102 104 103 104 105 109 118 126 130 138 143 143 135 123 159 276 326 320 341 22 8 11 12 354 350 341 327 328 330 329 329 322 318 314 301 293 285 281 291 291 282 281 283 280 279 283 284
161 168 154 185 228 246 234 237 264 351 4 303 269 261 272 256 80 37 63 102 119 116 110 103 95 93 98 98 103 108 115 118 114 110 103 97 91 88 91 92 95 104 107 108 107 103 101 100 99 99 99 100 103 103 104 107 112 115 116 124 132 128 128 123 122 27 24 72 33 30 295 298 314 316 315 307 300 305 314 321 324 327 332 334 327 320 314 302 303 307 305 304 307 305 300 297 295
127 129 134 184 218 258 237 233 294 3 131 272 256 256 274 270 293 349 29 103 98 97 98 97 105 113 117 125 130 129 126 120 114 113 112 106 105 105 104 104 106 112 115 118 119 114 109 108 105 104 102 101 103 103 107 116 114 111 114 116 119 119 118 109 97 81 50 17 317 304 287 283 290 297 299 298 299 301 304 303 301 303 308 315 317 318 320 319 317 318 317 313 313 317 318 314 309
111 128 174 226 222 249 254 230 318 350 172 268 347 303 274 265 288 341 348 88 69 74 110 122 136 136 134 137 135 132 125 121 121 121 121 119 118 116 112 112 113 113 115 115 113 111 111 112 109 108 110 112 110 104 104 106 105 105 106 100 99 106 111 106 97 88 68 45 32 20 7 352 327 318 313 308 307 306 307 307 304 302 302 303 306 309 312 313 313 311 309 306 302 303 308 311 312
109 118 168 244 228 252 288 303 342 14 179 258 12 264 266 265 331 3 27 81 86 128 164 155 151 145 143 140 135 134 129 127 129 127 125 123 119 117 115 113 112 109 109 108 106 105 106 107 108 109 112 110 106 103 99 96 95 93 92 90 92 97 96 91 87 83 75 68 64 61 56 50 41 30 20 8 351 341 339 335 330 323 315 311 312 313 310 306 306 307 307 307 307 305 304 304 307
158 148 174 236 218 191 275 289 330 359 41 256 201 274 269 252 15 3 65 119 116 125 153 152 153 149 142 141 136 135 134 132 132 129 126 123 119 117 114 111 108 106 105 105 104 102 101 101 101 102 101 98 96 94 90 88 88 88 88 89 89 87 85 85 84 84 81 76 72 67 63 56 49 44 40 35 30 26 20 14 9 358 347 342 335 329 323 318 317 316 316 318 322 323 321 317 316
230 201 204 223 202 207 233 265 326 344 3 6 148 310 292 213 206 240 137 143 128 127 145 144 151 153 146 145 143 138 135 133 131 129 126 122 119 115 112 109 107 106 105 103 101 99 98 96 94 92 90 88 87 85 84 83 85 86 85 85 85 84 88 92 89 86 82 76 72 66 61 56 49 45 43 38 36 35 32 29 27 22 17 11 4 359 356 354 350 347 344 341 341 341 341 337 332
273 227 212 216 208 210 226 347 23 9 333 304 145 261 288 301 239 212 174 179 161 151 157 152 156 158 157 154 149 144 139 135 132 129 126 123 119 116 112 111 109 106 103 101 99 98 96 94 92 91 89 87 84 82 82 82 82 85 85 87 90 92 97 97 86 80 76 70 68 65 62 59 52 48 45 41 39 36 34 33 31 28 25 22 21 18 15 14 11 8 7 3 360 358 354 347 343
278 247 208 207 196 181 176 143 111 165 254 299 85 191 258 322 308 230 170 196 208 211 188 174 172 168 167 163 156 150 144 139 135 131 129 125 121 119 116 113 110 105 102 99 97 96 95 93 92 91 89 88 86 84 85 84 84 88 91 93 97 92 88 88 81 77 73 69 68 65 63 60 55 50 48 45 41 39 36 33 31 28 25 25 25 22 21 22 20 18 16 12 11 9 5 1 357
232 248 163 168 173 178 177 160 171 225 248 322 26 148 228 298 284 270 162 202 246 236 228 208 190 181 175 168 160 155 149 143 138 134 131 129 125 123 119 115 112 107 103 100 99 97 95 94 93 92 90 89 89 91 95 95 89 89 87 87 92 87 80 84 84 80 76 72 69 65 60 55 51 46 44 42 40 38 35 32 30 25 21 21 19 17 19 21 19 17 15 13 11 9 8 9 6
241 190 116 134 154 160 149 142 177 273 11 286 291 136 213 265 265 315 68 242 257 222 211 214 199 188 179 173 166 160 154 146 141 138 135 133 129 126 123 119 115 111 108 106 105 102 100 99 98 98 97 97 98 99 102 99 88 81 76 71 77 81 80 83 85 83 80 74 65 64 58 51 48 43 40 38 34 33 31 29 27 22 19 18 15 14 14 12 9 8 7 7 8 6 6 6 4
183 132 95 84 79 84 96 115 126 63 76 240 239 180 200 268 277 292 79 254 251 212 199 207 197 190 182 176 172 166 159 151 146 143 140 137 134 131 127 124 120 118 117 115 113 110 106 103 101 102 102 100 101 101 95 90 82 71 67 64 68 78 82 86 89 85 81 74 63 61 56 49 45 39 35 31 26 25 22 20 17 15 15 13 11 9 6 4 2 2 2 2 2 1 1 0 360
138 117 77 64 44 48 58 62 90 72 273 247 234 198 194 259 273 235 201 232 214 165 176 197 192 193 188 181 177 170 163 156 151 148 145 142 139 136 133 130 128 127 125 123 119 116 112 108 104 102 102 101 101 100 91 84 84 72 68 70 73 82 89 91 90 83 77 67 55 53 48 42 38 33 29 24 19 18 15 12 10 8 7 5 3 1 0 359 359 358 358 356 355 354 354 354 353
119 95 92 91 2 15 29 359 49 157 250 257 262 218 188 223 254 240 227 239 199 166 176 180 186 195 191 185 181 174 166 160 156 153 151 148 145 142 140 138 137 135 132 130 126 123 120 117 114 102 103 107 106 106 99 91 93 85 81 85 84 88 92 88 75 68 64 53 45 46 41 35 32 27 23 17 15 14 11 8 5 2 360 358 357 356 356 355 354 353 352 350 350 349 348 348 347
91 92 115 112 343 7 349 291 242 226 242 266 291 196 200 230 247 252 241 230 218 204 189 181 184 190 190 186 182 176 170 165 162 159 156 154 151 148 147 145 144 142 140 140 137 134 131 126 128 118 112 119 122 121 117 107 105 99 94 95 89 86 85 71 56 50 48 41 37 33 24 19 16 10 7 5 4 4 3 0 359 358 357 356 355 353 352 350 349 348 347 346 346 345 344 344 344
155 146 141 137 128 141 253 255 259 258 246 298 299 221 219 261 266 259 244 219 213 211 197 188 187 187 187 185 182 177 174 171 168 165 162 159 156 154 153 151 150 149 149 149 148 149 147 141 145 149 132 132 138 137 130 122 113 105 99 93 83 77 65 50 41 36 34 29 23 16 10 7 3 358 357 355 353 352 350 348 347 347 346 346 346 346 345 344 343 342 342 341 341 340 340 338 337
178 160 137 147 157 173 219 216 214 248 255 307 297 218 188 205 246 275 274 285 250 221 205 192 191 190 187 184 183 182 179 177 174 171 167 164 161 159 159 157 157 157 157 159 160 161 163 159 159 168 157 147 150 148 138 131 113 99 94 83 71 61 44 30 22 19 16 9 6 2 358 355 353 351 349 346 343 339 337 335 334 333 333 333 333 333 334 334 335 335 335 336 335 335 334 332 331
204 123 117 172 187 154 160 195 178 178 280 283 233 224 221 199 221 299 306 306 277 240 220 193 190 192 189 188 188 186 184 182 179 175 172 169 168 167 166 164 163 164 165 168 170 171 175 176 175 180 176 162 160 158 148 140 120 101 94 79 61 46 30 13 4 2 356 353 350 345 343 342 339 338 336 333 331 330 329 328 328 328 328 328 328 329 329 330 330 331 331 331 331 331 330 329 328
152 137 175 214 179 117 113 235 66 79 258 254 191 225 286 315 272 302 8 319 276 257 231 199 189 189 191 193 193 190 188 186 183 179 176 174 173 173 171 169 169 170 172 176 179 181 184 189 190 190 188 179 173 172 166 158 142 121 110 82 50 29 8 350 345 343 342 344 341 336 336 334 330 328 326 325 325 324 324 324 323 323 323 324 325 326 326 327 328 328 329 329 328 328 327 327 326
126 181 205 184 126 93 108 228 351 51 247 267 204 210 227 165 240 294 27 272 248 224 208 194 188 190 196 199 197 194 191 189 187 183 181 180 179 177 176 174 175 177 180 184 187 189 190 193 197 197 198 193 184 181 178 171 162 161 181 203 297 322 323 324 331 336 340 341 335 334 334 331 329 326 324 324 323 322 321 320 320 320 319 320 321 321 322 323 324 324 325 325 325 325 324 324 324
126 181 175 117 144 165 113 179 221 207 244 283 288 232 220 193 204 204 203 223 222 198 186 191 191 195 200 202 200 197 194 192 191 188 186 185 183 181 180 178 181 184 187 190 192 195 196 196 197 197 199 197 192 190 187 186 192 204 222 232 247 277 297 313 328 336 337 334 331 332 332 330 329 326 323 322 320 319 318 316 316 316 317 318 318 320 321 322 322 323 323 323 323 322 321 321 321
62 102 115 86 151 175 161 163 172 185 224 277 296 277 237 225 203 183 196 209 197 176 185 204 203 201 201 201 200 198 196 195 194 191 190 187 184 184 184 184 188 190 192 194 196 199 200 200 200 199 200 199 198 200 201 205 210 215 226 236 248 272 299 318 328 332 331 330 332 334 332 330 329 327 324 320 318 317 316 316 318 318 319 321 321 323 323 323 324 323 323 322 321 321 319 319 319
131 147 166 173 134 127 181 223 120 139 179 216 284 287 258 246 209 184 198 208 187 180 190 202 207 206 204 203 201 199 198 197 196 193 190 187 185 186 188 191 194 194 196 198 199 201 202 203 204 202 203 205 207 210 211 213 216 219 228 241 263 289 306 317 325 328 330 332 333 331 329 327 327 326 323 321 319 319 319 321 322 323 324 324 325 325 325 324 324 323 323 322 321 321 320 320 319
166 180 184 184 178 135 177 246 196 112 185 181 220 272 260 232 206 189 201 210 192 195 197 200 206 207 206 205 204 202 201 200 197 193 190 189 188 190 193 196 197 198 200 200 200 203 204 205 205 204 206 210 212 215 216 217 220 223 235 254 278 298 310 319 326 327 327 327 325 323 323 323 323 323 322 322 321 321 322 323 323 324 325 325 325 325 325 324 323 322 322 322 322 322 322 321 321